TimeEST,TemperatureF,Dew PointF,Humidity,Sea Level PressureIn,VisibilityMPH,Wind Direction,Wind SpeedMPH,Gust SpeedMPH,PrecipitationIn,Events,Conditions,WindDirDegrees,DateUTC
12:15 AM,33.3,20.1,59,30.24,10.0,NNW,3.5,-,N/A,,Overcast,330,2014-01-05 05:15:00
12:35 AM,32.2,24.4,73,30.23,10.0,Calm,Calm,-,N/A,,Overcast,0,2014-01-05 05:35:00
12:55 AM,32.0,26.2,79,30.23,7.0,Calm,Calm,-,N/A,,Overcast,0,2014-01-05 05:55:00
1:15 AM,31.6,28.2,87,30.22,3.0,Calm,Calm,-,N/A,,Overcast,0,2014-01-05 06:15:00
1:35 AM,31.3,29.1,92,30.22,5.0,Calm,Calm,-,N/A,,Overcast,0,2014-01-05 06:35:00
1:55 AM,31.1,29.8,95,30.23,4.0,Calm,Calm,-,N/A,,Overcast,0,2014-01-05 06:55:00
2:15 AM,30.9,30.2,97,30.22,2.0,Calm,Calm,-,N/A,,Overcast,0,2014-01-05 07:15:00
2:35 AM,30.9,30.6,99,30.21,2.5,Calm,Calm,-,N/A,,Overcast,0,2014-01-05 07:35:00
2:55 AM,31.1,30.9,99,30.21,1.8,Calm,Calm,-,N/A,,Overcast,0,2014-01-05 07:55:00
3:15 AM,31.1,31.1,100,30.21,1.2,Calm,Calm,-,N/A,,Overcast,0,2014-01-05 08:15:00
3:35 AM,31.5,31.5,100,30.21,1.2,Calm,Calm,-,N/A,,Overcast,0,2014-01-05 08:35:00
3:55 AM,31.6,31.6,100,30.20,1.8,Calm,Calm,-,N/A,,Overcast,0,2014-01-05 08:55:00
4:15 AM,31.6,31.6,100,30.19,2.0,Calm,Calm,-,N/A,,Overcast,0,2014-01-05 09:15:00
4:35 AM,31.8,31.8,100,30.18,1.5,Calm,Calm,-,N/A,,Freezing Rain,0,2014-01-05 09:35:00
4:55 AM,31.8,31.8,100,30.17,2.0,Calm,Calm,-,N/A,,Overcast,0,2014-01-05 09:55:00
5:15 AM,32.0,32.0,100,30.16,1.8,Calm,Calm,-,N/A,,Overcast,0,2014-01-05 10:15:00
5:35 AM,32.0,32.0,100,30.16,1.2,Calm,Calm,-,N/A,,Overcast,0,2014-01-05 10:35:00
5:55 AM,32.0,32.0,100,30.16,1.0,Calm,Calm,-,N/A,,Drizzle,0,2014-01-05 10:55:00
6:15 AM,32.0,32.0,100,30.16,1.2,Calm,Calm,-,N/A,Rain,Light Rain,0,2014-01-05 11:15:00
6:35 AM,32.2,32.2,100,30.16,1.8,Calm,Calm,-,N/A,,Overcast,0,2014-01-05 11:35:00
6:55 AM,32.2,32.2,100,30.16,2.0,North,3.5,-,N/A,,Overcast,10,2014-01-05 11:55:00
7:15 AM,32.4,32.4,100,30.15,1.5,Calm,Calm,-,N/A,,Overcast,0,2014-01-05 12:15:00
7:35 AM,32.5,32.5,100,30.16,1.8,Calm,Calm,-,N/A,,Overcast,0,2014-01-05 12:35:00
7:55 AM,32.9,32.9,100,30.17,2.0,WSW,3.5,-,N/A,Rain,Rain,240,2014-01-05 12:55:00
8:15 AM,33.1,33.1,100,30.14,1.2,Calm,Calm,-,0.01,Rain,Rain,0,2014-01-05 13:15:00
8:35 AM,33.6,33.6,100,30.14,2.5,Calm,Calm,-,0.01,,Overcast,0,2014-01-05 13:35:00
8:55 AM,33.8,33.8,100,30.13,2.0,NNW,5.8,-,0.01,,Light Drizzle,340,2014-01-05 13:55:00
9:15 AM,34.0,34.0,100,30.13,1.2,Calm,Calm,-,N/A,Rain,Heavy Rain,0,2014-01-05 14:15:00
9:35 AM,34.2,34.2,100,30.14,1.0,NW,3.5,-,0.06,Rain,Rain,310,2014-01-05 14:35:00
9:55 AM,35.1,35.1,100,30.14,2.0,North,3.5,-,0.06,,Light Drizzle,350,2014-01-05 14:55:00
10:15 AM,35.6,35.6,100,30.13,4.0,Calm,Calm,-,N/A,,Overcast,0,2014-01-05 15:15:00
10:35 AM,36.5,36.1,99,30.12,4.0,Calm,Calm,-,N/A,,Overcast,0,2014-01-05 15:35:00
10:55 AM,36.9,36.5,99,30.11,2.5,Calm,Calm,-,N/A,,Overcast,0,2014-01-05 15:55:00
11:15 AM,37.4,37.4,100,30.10,1.5,Calm,Calm,-,N/A,,Overcast,0,2014-01-05 16:15:00
11:35 AM,37.8,37.6,99,30.09,1.0,Calm,Calm,-,N/A,,Overcast,0,2014-01-05 16:35:00
11:55 AM,37.6,37.6,100,30.08,1.0,Calm,Calm,-,N/A,,Overcast,0,2014-01-05 16:55:00
12:15 PM,37.8,37.8,100,30.07,1.0,WNW,3.5,-,N/A,,Overcast,300,2014-01-05 17:15:00
12:35 PM,37.8,37.8,100,30.06,1.0,WNW,3.5,-,N/A,,Overcast,300,2014-01-05 17:35:00
12:55 PM,38.5,38.5,100,30.03,1.0,Calm,Calm,-,N/A,,Drizzle,0,2014-01-05 17:55:00
1:15 PM,38.8,38.8,100,30.01,1.5,Calm,Calm,-,N/A,,Overcast,0,2014-01-05 18:15:00
1:35 PM,39.2,39.2,100,30.00,1.8,Calm,Calm,-,N/A,,Overcast,0,2014-01-05 18:35:00
1:55 PM,39.2,39.0,99,29.99,1.2,Calm,Calm,-,N/A,,Overcast,0,2014-01-05 18:55:00
2:15 PM,39.2,39.2,100,29.98,1.0,Calm,Calm,-,N/A,,Overcast,0,2014-01-05 19:15:00
2:35 PM,39.2,39.2,100,29.98,1.0,Calm,Calm,-,N/A,,Overcast,0,2014-01-05 19:35:00
2:55 PM,39.4,39.4,100,29.97,0.5,Calm,Calm,-,N/A,Fog,Fog,0,2014-01-05 19:55:00
3:15 PM,39.4,39.4,100,29.97,0.5,Calm,Calm,-,N/A,Fog,Fog,0,2014-01-05 20:15:00
3:35 PM,39.6,39.6,100,29.99,0.5,West,3.5,-,N/A,Fog,Fog,270,2014-01-05 20:35:00
3:55 PM,39.9,39.9,100,29.96,0.5,SE,3.5,-,N/A,Fog,Fog,130,2014-01-05 20:55:00
4:15 PM,40.1,40.1,100,29.98,0.5,SSW,3.5,-,N/A,Fog,Fog,200,2014-01-05 21:15:00
4:35 PM,39.7,39.7,100,29.96,0.5,Calm,Calm,-,N/A,Fog,Fog,0,2014-01-05 21:35:00
4:55 PM,39.7,39.7,100,29.97,0.5,SW,3.5,-,N/A,Fog,Fog,220,2014-01-05 21:55:00
5:15 PM,39.6,39.6,100,29.95,0.2,Calm,Calm,-,N/A,Fog,Fog,0,2014-01-05 22:15:00
5:35 PM,39.2,39.2,100,29.94,0.2,Calm,Calm,-,N/A,Fog,Fog,0,2014-01-05 22:35:00
5:55 PM,39.2,39.2,100,29.94,0.5,Calm,Calm,-,N/A,Fog,Fog,0,2014-01-05 22:55:00
6:15 PM,39.2,39.2,100,29.93,0.5,Calm,Calm,-,N/A,Fog,Fog,0,2014-01-05 23:15:00
6:35 PM,39.2,39.2,100,29.92,0.5,Calm,Calm,-,N/A,Fog,Fog,0,2014-01-05 23:35:00
6:55 PM,39.0,39.0,100,29.91,0.5,Calm,Calm,-,N/A,Fog,Fog,0,2014-01-05 23:55:00
7:15 PM,38.8,38.8,100,29.90,0.5,SSE,3.5,-,N/A,Fog,Fog,150,2014-01-06 00:15:00
7:35 PM,38.8,38.8,100,29.91,0.2,South,3.5,-,N/A,Fog,Fog,180,2014-01-06 00:35:00
7:55 PM,38.7,38.7,100,29.90,0.2,South,4.6,-,N/A,Fog,Fog,170,2014-01-06 00:55:00
8:15 PM,38.8,38.8,100,29.90,0.2,Calm,Calm,-,N/A,Fog,Fog,0,2014-01-06 01:15:00
8:35 PM,38.7,38.7,100,29.89,0.5,Calm,Calm,-,N/A,Fog,Fog,0,2014-01-06 01:35:00
8:55 PM,38.7,38.7,100,29.87,0.2,Calm,Calm,-,N/A,Fog,Fog,0,2014-01-06 01:55:00
9:15 PM,38.7,38.7,100,29.86,0.2,Calm,Calm,-,N/A,Fog,Fog,0,2014-01-06 02:15:00
9:35 PM,38.5,38.5,100,29.85,0.2,Calm,Calm,-,N/A,Fog,Fog,0,2014-01-06 02:35:00
9:55 PM,38.5,38.5,100,29.85,0.2,Calm,Calm,-,N/A,Rain,Light Rain,0,2014-01-06 02:55:00
10:15 PM,38.5,38.5,100,29.83,0.5,South,3.5,-,N/A,Rain,Heavy Rain,170,2014-01-06 03:15:00
10:35 PM,38.5,38.5,100,29.82,1.5,SSE,3.5,-,0.01,,Heavy Drizzle,150,2014-01-06 03:35:00
10:55 PM,38.5,38.5,100,29.82,2.0,Calm,Calm,-,0.03,Rain,Rain,0,2014-01-06 03:55:00
11:15 PM,38.5,38.5,100,29.79,2.0,SE,4.6,-,0.01,,Light Drizzle,130,2014-01-06 04:15:00
11:35 PM,38.5,38.5,100,29.77,1.8,SSE,4.6,-,0.01,,Overcast,150,2014-01-06 04:35:00
11:55 PM,38.7,38.7,100,29.76,2.0,Calm,Calm,-,0.01,,Light Drizzle,0,2014-01-06 04:55:00